Tracking 31027 objects as of 19-Jul-2025
HD Live streaming from Space Station
objects crossing your sky now

USA 65

Track USA 65 now!
USA 65 is classified as:


NORAD ID: 20929
Int'l Code: 1990-095A
Perigee: 36,307.5 km
Apogee: 36,347.9 km
Inclination: 14.2 °
Period: 1,463.5 minutes
Semi major axis: 42698 km
RCS: Unknown
Launch date: November 13, 1990
Source: United States (US)
Launch site: AIR FORCE EASTERN TEST RANGE (AFETR)
Your satellite tracking list
STARLINK-4324
Track 1 satellite(s)




NASA's NSSDC Master Catalog

Two Line Element Set (TLE):
1 20929U 90095A   25199.64186527 -.00000075  00000-0  00000+0 0  9992
2 20929  14.2108 346.3525 0004740 109.6307 107.0403  0.98396779 22174
Source of the keplerian elements: McCants